Regional Weather Roundup
Issued by NWS

Home | Current Version | Previous Version | Text Only | Print | Product List | Glossary Off
Versions: 1 2 3 4 5 6 7 8 9 10 11 12 13 14 15 16 17 18 19 20 21 22 23 24 25 26 27 28 29 30 31 32 33 34 35 36 37 38 39 40 41 42 43 44 45 46 47 48 49 50

000
ASUS43 KDTX 152201
RWRMI
MICHIGAN HOURLY REGIONAL WEATHER ROUNDUP
NATIONAL WEATHER SERVICE DETROIT/PONTIAC MI
600 PM EDT MON SEP 15 2014

NOTE: "FAIR" INDICATES FEW OR NO CLOUDS BELOW 12,000 FEET WITH NO
SIGNIFICANT WEATHER AND/OR OBSTRUCTION TO VISIBILITY.

MIZ047>049-052>055-059>063-066>070-074>076-081>083-152300-
SOUTHEAST LOWER MICHIGAN

CITY           SKY/WX    TMP DP  RH WIND       PRES   REMARKS
ADRIAN         CLOUDY    59  52  77 SW3       30.08S
ALMA           RAIN      55  53  92 CALM      30.09R
ANN ARBOR      CLOUDY    60  49  66 SW3       30.07S
BAD AXE        CLOUDY    56  53  87 NW5       30.08S
CARO           LGT RAIN  57  53  88 CALM      30.07S
DETROIT CITY   CLOUDY    61  47  59 SW3       30.07F
DETROIT        CLOUDY    61  50  67 S6        30.07F
FLINT          CLOUDY    62  50  64 CALM      30.06F
GROSSE ILE     CLOUDY    61  52  72 CALM      30.06S
HILLSDALE      CLOUDY    59  51  73 W3        30.07S
HOWELL         RAIN      58  50  76 SW6       30.07S

CITY           SKY/WX    TMP DP  RH WIND       PRES   REMARKS
JACKSON        CLOUDY    59  50  72 W5        30.08R
LAMBERTVILLE   DRIZZLE   59  54  82 SW6       30.09R
LANSING        LGT RAIN  59  50  72 SW8       30.07S
LAPEER         CLOUDY    60  49  66 CALM      30.07S
MASON          LGT RAIN  58  53  81 NW5       30.07S
MONROE         CLOUDY    61  54  77 CALM      30.05F
MT. CLEMENS    CLOUDY    61  48  61 SW5       30.05F
PONTIAC        PTSUNNY   59  48  67 S5        30.06F
PORT HOPE        N/A     58  51  78 W5        30.06S
PORT HURON     CLOUDY    59  52  77 S3        30.07F
TRI CITIES     LGT RAIN  57  52  83 NW6       30.09S
TROY           CLOUDY    61  48  61 SW3       30.08F
SAGINAW HB     LGT RAIN  55  55 100 CALM      30.08R
$$
MIZ043>046-050>051-056>058-064>065-071>073-077>080-152300-
SOUTHWEST LOWER MICHIGAN

CITY           SKY/WX    TMP DP  RH WIND       PRES   REMARKS
BATTLE CREEK   CLOUDY    60  50  69 SW9       30.08S
BENTON HARBOR  CLOUDY    59  51  75 W9        30.08R
BIG RAPIDS     LGT RAIN  54  53  99 N3        30.09S
COLDWATER      CLOUDY    58  53  83 W6        30.08S
FREMONT        RAIN      54  53  97 N3        30.09S
HOLLAND        CLOUDY    60  57  89 CALM      30.08R
GRAND RAPIDS   LGT RAIN  58  55  90 N5        30.08S FOG
IONIA          LGT RAIN  58  53  85 CALM      30.07R
KALAMAZOO      CLOUDY    60  50  69 SW9       30.09R
LUDINGTON      RAIN      55  52  92 CALM      30.11S
MARSHALL       CLOUDY    59  50  74 SW5       30.07S
MOUNT PLEASANT RAIN      55  53  93 CALM      30.08F
MUSKEGON       LGT RAIN  56  52  86 N3        30.10R
SOUTH HAVEN    RAIN      58  53  83 W5        30.08R
$$
MIZ016>042-152300-
NORTHERN LOWER MICHIGAN

CITY           SKY/WX    TMP DP  RH WIND       PRES   REMARKS
ALPENA         PTSUNNY   58  47  66 N6        30.06F
BEAVER ISLAND  CLOUDY    60  46  59 W12       30.08R
BELLAIRE       CLOUDY    58  45  61 CALM      30.08S
CADILLAC       DRIZZLE   51  50  96 CALM      30.08F
CHARLEVOIX     PTSUNNY   58  44  58 W7        30.10S
FRANKFORT      CLOUDY    58  49  71 NW5       30.09S
GAYLORD        CLOUDY    55  39  54 NW5       30.07S
GRAYLING       LGT RAIN  54  54 100 SW3       30.09S
HARBOR SPRINGS PTSUNNY   59  44  56 W6        30.08S
HOUGHTON LAKE  LGT RAIN  52  50  93 W3        30.09F
MANISTEE       CLOUDY    55  48  76 W3        30.11S
OSCODA         LGT RAIN  55  54  95 SW5       30.07S
PELLSTON       PTSUNNY   60  44  55 W8        30.07S
ROGERS CITY    PTSUNNY   57  48  72 N3        30.07S
TRAVERSE CITY  CLOUDY    59  46  62 N5        30.07S
$$
MIZ007>008-015-152300-
EASTERN UPPER MICHIGAN

CITY           SKY/WX    TMP DP  RH WIND       PRES   REMARKS
KINROSS        MOSUNNY   55  45  67 NW14      30.06R
MACKINAC ISLAN CLOUDY    55  47  73 N5        30.06S
NEWBERRY       CLOUDY    56  42  59 NW8       30.06S
S. S. MARIE    SUNNY     56  39  53 NW10      30.05S
$$
MIZ004>006-011>014-085-152300-
CENTRAL UPPER MICHIGAN

CITY           SKY/WX    TMP DP  RH WIND       PRES   REMARKS
MANISTIQUE     CLOUDY    56  51  82 W3        30.07S
ESCANABA       CLOUDY    57  48  72 CALM      30.09R
MENOMINEE      CLOUDY    59  45  58 NW6       30.08R
$$
MIZ001>003-009>011-084-152300-
WESTERN UPPER MICHIGAN

CITY           SKY/WX    TMP DP  RH WIND       PRES   REMARKS
IRON MOUNTAIN  PTSUNNY   61  41  47 N8        30.07S
HOUGHTON       MOSUNNY   53  40  61 W18       30.10R
COPPER HARBOR    N/A     54  43  66 N16G25    30.08S
IRONWOOD       CLOUDY    54  37  54 W13       30.12S
$$

ABBREVIATIONS USED IN REMARKS
   TC - TEMPERATURE IN CELSIUS
  WCI - WIND CHILL INDEX
   HX - HEAT INDEX
  VSB - VISIBILITY




USA.gov is the U.S. government's official web portal to all federal, state and local government web resources and services.